Home > Weather > Liepāja > Past weeks

Flag for Latvia Past Weather in Liepāja, Latvia — Yesterday and Last 2 Weeks

Now
79 °F

Passing clouds.


Feels Like: 81 °F
Forecast: 59 / 63 °F
Wind: 8 mph from South

Location: Liepaja International Airport

Current Time: Jul 2, 2016 at 10:38:29 AM

Latest Report: Jul 2, 2016 at 10:20 AM


Visibility: N/A

Pressure: 29.92 "Hg

Humidity: 61%

Dew Point: 64 °F

Location of LiepājaLocation

Past Weather in Liepāja — Graph

°F

Liepāja Temperature Yesterday

Maximum temperature yesterday: 75 °F (at 4:50 PM)
Minimum temperature yesterday: 55 °F (at 5:20 AM)
Average temperature yesterday: 67 °F

High & Low Weather Summary for the Past Weeks

 TemperatureHumidityPressure
High90 °F (Jun 25, 5:20 PM)100% (Jun 18, 5:50 AM)30.30 "Hg (Jun 18, 5:50 AM)
Low46 °F (Jun 23, 3:20 AM)40% (Jun 24, 4:20 PM)29.18 "Hg (Jun 18, 3:20 AM)
Average65 °F80%29.97 "Hg
* Reported Jun 17 9:20 AM — Jul 2 9:20 AM, Liepāja, Weather by CustomWeather, © 2016

Note: Actual official high and low records may vary slightly from our data, if they occured in-between our weather recording intervals... More about our weather records

Advertising

Liepāja Weather History for the Previous 24 Hours

Scroll right to see more
 ConditionsComfort  
Time TempWeatherWind HumidityBarometerVisibility
9:20 AM
Sat, Jul 2
77 °FSunny.7 mph65%29.92 "Hg10 mi
8:50 AM75 °FPassing clouds.6 mph69%29.92 "HgN/A
8:20 AM72 °FSunny.7 mph73%29.92 "Hg10 mi
7:50 AM70 °FSunny.8 mph78%29.92 "Hg10 mi
7:20 AM70 °FSunny.7 mph73%29.95 "Hg10 mi
6:50 AM68 °FClear.7 mph78%29.95 "Hg10 mi
6:20 AM66 °FClear.5 mph78%29.95 "Hg10 mi
5:50 AM64 °FClear.7 mph83%29.95 "Hg10 mi
5:20 AM64 °FClear.6 mph83%29.95 "Hg10 mi
4:50 AM63 °FClear.5 mph88%29.95 "Hg10 mi
4:20 AM61 °FClear.3 mph88%29.95 "Hg10 mi
3:50 AM59 °FClear.3 mph94%29.98 "Hg10 mi
3:20 AM61 °FClear.5 mph88%29.98 "Hg10 mi
2:50 AM59 °FClear.3 mph94%29.98 "Hg10 mi
2:20 AM59 °FClear.2 mph94%29.98 "Hg10 mi
1:50 AM59 °FClear.1 mph94%29.98 "Hg10 mi
1:20 AM59 °FClear.1 mph94%29.98 "Hg10 mi
12:50 AM61 °FClear.2 mph94%29.98 "Hg10 mi
12:20 AM61 °FSunny.2 mph88%29.98 "Hg10 mi
11:50 PM
Fri, Jul 1
61 °FSunny.3 mph94%29.98 "Hg10 mi
11:20 PM63 °FMild.1 mph88%29.98 "Hg4 mi
10:50 PM64 °FSunny.1 mph83%29.98 "Hg10 mi
10:20 PM68 °FSunny.3 mph73%29.98 "Hg10 mi
9:50 PM70 °FSunny.3 mph73%29.98 "Hg10 mi
9:20 PM73 °FSunny.3 mph57%29.98 "Hg10 mi
8:50 PM73 °FSunny.3 mph61%29.98 "Hg10 mi
8:20 PM73 °FSunny.6 mph61%29.98 "Hg10 mi
7:50 PM73 °FSunny.6 mph61%29.98 "Hg10 mi
7:20 PM75 °FSunny.6 mph54%29.98 "Hg10 mi
6:50 PM75 °FPassing clouds.6 mph54%29.98 "HgN/A
6:20 PM73 °FSunny.8 mph57%29.98 "Hg10 mi
5:50 PM73 °FPassing clouds.9 mph57%29.98 "HgN/A
5:20 PM75 °FSunny.8 mph54%29.98 "Hg10 mi
4:50 PM75 °FSunny.9 mph54%29.98 "Hg10 mi
4:20 PM73 °FSunny.10 mph57%29.98 "Hg10 mi
3:50 PM73 °FSunny.12 mph57%29.98 "Hg10 mi
3:20 PM73 °FSunny.13 mph61%29.98 "Hg10 mi
2:50 PM73 °FSunny.13 mph69%29.98 "Hg10 mi
2:20 PM73 °FSunny.12 mph74%29.98 "Hg10 mi
1:50 PM73 °FSunny.12 mph74%29.98 "Hg10 mi
1:20 PM72 °FSunny.13 mph73%29.98 "Hg10 mi
12:50 PM72 °FSunny.12 mph73%29.95 "Hg10 mi
12:20 PM72 °FPassing clouds.9 mph73%29.95 "HgN/A
11:50 AM72 °FSunny.9 mph73%29.95 "Hg10 mi
11:20 AM72 °FPassing clouds.10 mph73%29.95 "HgN/A
10:50 AM72 °FSunny.7 mph73%29.95 "Hg10 mi
10:20 AM72 °FPassing clouds.6 mph73%29.92 "HgN/A
Weather by CustomWeather, © 2016

See weather overviewHow to use our weather pages